Tracking 28518 objects as of 2-Mar-2024
HD Live streaming from Space Station
objects crossing your sky now

STARLINK-31230

Track STARLINK-31230 now!
10-day predictions
STARLINK-31230 is classified as:


NORAD ID: 58890
Int'l Code: 2024-020Q
Perigee: 487.6 km
Apogee: 489.9 km
Inclination: 53.2 °
Period: 94.2 minutes
Semi major axis: 6859 km
RCS: Unknown
Launch date: January 29, 2024
Source: United States (US)
Launch site: AIR FORCE WESTERN TEST RANGE (AFWTR)
Your satellite tracking list
Your tracking list is empty




NASA's NSSDC Master Catalog

Two Line Element Set (TLE):
1 58890U 24020Q   24061.52315458  .00002898  00000-0  11718-3 0  9992
2 58890  53.1615 150.4930 0001669  73.3963 286.7220 15.28046244  5062
Source of the keplerian elements: AFSPC